Data supplied by UK-AIR on 19/3/2016
All Data GMT hour ending 
Status: R =Ratified P=Provisional,P*=As supplied
,,Cambridge Roadside,,,,,,,,,,,,,,,,,,,,,,,
Date,time,"Nitric oxide",status,unit,"Nitrogen dioxide",status,unit,"Nitrogen oxides as nitrogen dioxide",status,unit
 
01-01-2015,01:00,8.66655,R,ugm-3,22.61962,R,ugm-3,35.90814,R,ugm-3
01-01-2015,02:00,7.67838,R,ugm-3,21.90960,R,ugm-3,33.68295,R,ugm-3
01-01-2015,03:00,14.48209,R,ugm-3,24.34947,R,ugm-3,46.55503,R,ugm-3
01-01-2015,04:00,14.40632,R,ugm-3,24.88641,R,ugm-3,46.97578,R,ugm-3
01-01-2015,05:00,21.74231,R,ugm-3,31.50222,R,ugm-3,64.83997,R,ugm-3
01-01-2015,06:00,2.96483,R,ugm-3,11.75423,R,ugm-3,16.30024,R,ugm-3
01-01-2015,07:00,3.42103,R,ugm-3,11.35547,R,ugm-3,16.60098,R,ugm-3
01-01-2015,08:00,1.90026,R,ugm-3,11.28136,R,ugm-3,14.19505,R,ugm-3
01-01-2015,09:00,4.82768,R,ugm-3,12.50632,R,ugm-3,19.90865,R,ugm-3
01-01-2015,10:00,2.09016,R,ugm-3,10.56895,R,ugm-3,13.77383,R,ugm-3
01-01-2015,11:00,3.23113,R,ugm-3,12.48910,R,ugm-3,17.44343,R,ugm-3
01-01-2015,12:00,3.19309,R,ugm-3,13.50942,R,ugm-3,18.40542,R,ugm-3
01-01-2015,13:00,3.68702,R,ugm-3,14.97774,R,ugm-3,20.63109,R,ugm-3
01-01-2015,14:00,3.80115,R,ugm-3,15.76474,R,ugm-3,21.59308,R,ugm-3
01-01-2015,15:00,4.33312,R,ugm-3,15.73079,R,ugm-3,22.37482,R,ugm-3
01-01-2015,16:00,4.37116,R,ugm-3,16.21418,R,ugm-3,22.91653,R,ugm-3
01-01-2015,17:00,3.30690,R,ugm-3,12.25243,R,ugm-3,17.32295,R,ugm-3
01-01-2015,18:00,2.35646,R,ugm-3,10.64211,R,ugm-3,14.25530,R,ugm-3
01-01-2015,19:00,2.09048,R,ugm-3,9.60601,R,ugm-3,12.81136,R,ugm-3
01-01-2015,20:00,1.90026,R,ugm-3,9.95839,R,ugm-3,12.87208,R,ugm-3
01-01-2015,21:00,1.93862,R,ugm-3,8.69662,R,ugm-3,11.66912,R,ugm-3
01-01-2015,22:00,1.82449,R,ugm-3,7.06669,R,ugm-3,9.86420,R,ugm-3
01-01-2015,23:00,1.55850,R,ugm-3,6.87353,R,ugm-3,9.26319,R,ugm-3
01-01-2015,24:00,,,,,,,,,
02-01-2015,01:00,1.14440,R,ugm-3,7.34926,R,ugm-3,9.10398,R,ugm-3
02-01-2015,02:00,0.91521,R,ugm-3,5.28950,R,ugm-3,6.69279,R,ugm-3
02-01-2015,03:00,0.91521,R,ugm-3,4.62586,R,ugm-3,6.02916,R,ugm-3
02-01-2015,04:00,0.76272,R,ugm-3,6.30647,R,ugm-3,7.47596,R,ugm-3
02-01-2015,05:00,2.97450,R,ugm-3,11.41619,R,ugm-3,15.97703,R,ugm-3
02-01-2015,06:00,8.12273,R,ugm-3,18.47475,R,ugm-3,30.92943,R,ugm-3
02-01-2015,07:00,14.07235,R,ugm-3,24.18404,R,ugm-3,45.76134,R,ugm-3
02-01-2015,08:00,35.27614,R,ugm-3,35.86559,R,ugm-3,89.95492,R,ugm-3
02-01-2015,09:00,68.49236,R,ugm-3,52.82325,R,ugm-3,157.84341,R,ugm-3
02-01-2015,10:00,47.55581,R,ugm-3,46.94183,R,ugm-3,119.85972,R,ugm-3
02-01-2015,11:00,41.33958,R,ugm-3,41.94256,R,ugm-3,105.32903,R,ugm-3
02-01-2015,12:00,47.67025,R,ugm-3,43.45057,R,ugm-3,116.54393,R,ugm-3
02-01-2015,13:00,60.33128,R,ugm-3,43.69154,R,ugm-3,136.19821,R,ugm-3
02-01-2015,14:00,58.08146,R,ugm-3,45.03125,R,ugm-3,134.08824,R,ugm-3
02-01-2015,15:00,,,,,,,,,
02-01-2015,16:00,124.73042,R,ugm-3,64.62656,R,ugm-3,255.87720,R,ugm-3
02-01-2015,17:00,229.38907,R,ugm-3,84.06250,R,ugm-3,435.78751,R,ugm-3
02-01-2015,18:00,203.22789,R,ugm-3,82.93604,R,ugm-3,394.54779,R,ugm-3
02-01-2015,19:00,118.75575,R,ugm-3,66.73382,R,ugm-3,248.82342,R,ugm-3
02-01-2015,20:00,50.14894,R,ugm-3,52.12997,R,ugm-3,129.02394,R,ugm-3
02-01-2015,21:00,41.41597,R,ugm-3,47.91530,R,ugm-3,111.41890,R,ugm-3
02-01-2015,22:00,19.18254,R,ugm-3,40.64588,R,ugm-3,70.05870,R,ugm-3
02-01-2015,23:00,22.08095,R,ugm-3,34.15199,R,ugm-3,68.00898,R,ugm-3
02-01-2015,24:00,,,,,,,,,
03-01-2015,01:00,8.01359,R,ugm-3,23.95598,R,ugm-3,36.24331,R,ugm-3
03-01-2015,02:00,13.63517,R,ugm-3,26.31696,R,ugm-3,47.22393,R,ugm-3
03-01-2015,03:00,7.21625,R,ugm-3,21.15799,R,ugm-3,32.22276,R,ugm-3
03-01-2015,04:00,6.64655,R,ugm-3,22.75158,R,ugm-3,32.94281,R,ugm-3
03-01-2015,05:00,2.54480,R,ugm-3,13.13935,R,ugm-3,17.04133,R,ugm-3
03-01-2015,06:00,4.74785,R,ugm-3,13.36168,R,ugm-3,20.64161,R,ugm-3
03-01-2015,07:00,22.59827,R,ugm-3,34.29495,R,ugm-3,68.94515,R,ugm-3
03-01-2015,08:00,24.95286,R,ugm-3,41.90574,R,ugm-3,80.16626,R,ugm-3
03-01-2015,09:00,34.82773,R,ugm-3,48.36617,R,ugm-3,101.76795,R,ugm-3
03-01-2015,10:00,36.49880,R,ugm-3,45.62364,R,ugm-3,101.58770,R,ugm-3
03-01-2015,11:00,49.45014,R,ugm-3,54.08741,R,ugm-3,129.90991,R,ugm-3
03-01-2015,12:00,49.60232,R,ugm-3,46.05348,R,ugm-3,122.10930,R,ugm-3
03-01-2015,13:00,54.31150,R,ugm-3,46.09460,R,ugm-3,129.37106,R,ugm-3
03-01-2015,14:00,48.12115,R,ugm-3,43.34442,R,ugm-3,117.12915,R,ugm-3
03-01-2015,15:00,45.08272,R,ugm-3,46.92271,R,ugm-3,116.04859,R,ugm-3
03-01-2015,16:00,75.84675,R,ugm-3,52.97721,R,ugm-3,169.27394,R,ugm-3
03-01-2015,17:00,82.87280,R,ugm-3,54.98390,R,ugm-3,182.05374,R,ugm-3
03-01-2015,18:00,138.51391,R,ugm-3,63.75606,R,ugm-3,276.14109,R,ugm-3
03-01-2015,19:00,165.17651,R,ugm-3,74.89876,R,ugm-3,328.16588,R,ugm-3
03-01-2015,20:00,88.87356,R,ugm-3,59.46441,R,ugm-3,195.73529,R,ugm-3
03-01-2015,21:00,54.23572,R,ugm-3,48.42976,R,ugm-3,131.59004,R,ugm-3
03-01-2015,22:00,58.75594,R,ugm-3,50.62005,R,ugm-3,140.71123,R,ugm-3
03-01-2015,23:00,54.08386,R,ugm-3,50.70277,R,ugm-3,133.63020,R,ugm-3
03-01-2015,24:00,,,,,,,,,
04-01-2015,01:00,37.43896,R,ugm-3,46.16823,R,ugm-3,103.57383,R,ugm-3
04-01-2015,02:00,36.41711,R,ugm-3,46.00184,R,ugm-3,101.84063,R,ugm-3
04-01-2015,03:00,30.81424,R,ugm-3,39.53185,R,ugm-3,86.77969,R,ugm-3
04-01-2015,04:00,35.31917,R,ugm-3,37.82399,R,ugm-3,91.97930,R,ugm-3
04-01-2015,05:00,12.49233,R,ugm-3,30.86918,R,ugm-3,50.02383,R,ugm-3
04-01-2015,06:00,17.41387,R,ugm-3,33.54286,R,ugm-3,60.24375,R,ugm-3
04-01-2015,07:00,26.61239,R,ugm-3,33.54334,R,ugm-3,74.34844,R,ugm-3
04-01-2015,08:00,4.88318,R,ugm-3,26.87780,R,ugm-3,34.36523,R,ugm-3
04-01-2015,09:00,19.60912,R,ugm-3,30.59522,R,ugm-3,60.66211,R,ugm-3
04-01-2015,10:00,39.52070,R,ugm-3,30.42548,R,ugm-3,91.02305,R,ugm-3
04-01-2015,11:00,57.12416,R,ugm-3,35.40850,R,ugm-3,122.99766,R,ugm-3
04-01-2015,12:00,44.78337,R,ugm-3,35.02648,R,ugm-3,103.69336,R,ugm-3
04-01-2015,13:00,63.74857,R,ugm-3,39.29614,R,ugm-3,137.04258,R,ugm-3
04-01-2015,14:00,85.66737,R,ugm-3,48.42020,R,ugm-3,179.77500,R,ugm-3
04-01-2015,15:00,73.02349,R,ugm-3,51.25213,R,ugm-3,163.21992,R,ugm-3
04-01-2015,16:00,80.06419,R,ugm-3,54.26241,R,ugm-3,177.02578,R,ugm-3
04-01-2015,17:00,74.15916,R,ugm-3,50.28775,R,ugm-3,163.99688,R,ugm-3
04-01-2015,18:00,57.69168,R,ugm-3,46.07308,R,ugm-3,134.53242,R,ugm-3
04-01-2015,19:00,30.62496,R,ugm-3,36.05684,R,ugm-3,83.01445,R,ugm-3
04-01-2015,20:00,17.94335,R,ugm-3,31.83452,R,ugm-3,59.34727,R,ugm-3
04-01-2015,21:00,19.87417,R,ugm-3,37.65952,R,ugm-3,68.13281,R,ugm-3
04-01-2015,22:00,13.51450,R,ugm-3,32.17064,R,ugm-3,52.89258,R,ugm-3
04-01-2015,23:00,12.07605,R,ugm-3,32.52350,R,ugm-3,51.03984,R,ugm-3
04-01-2015,24:00,,,,,,,,,
05-01-2015,01:00,7.35751,R,ugm-3,50.39820,R,ugm-3,61.67956,R,ugm-3
05-01-2015,02:00,6.56516,R,ugm-3,49.41278,R,ugm-3,59.47923,R,ugm-3
05-01-2015,03:00,6.98020,R,ugm-3,42.94758,R,ugm-3,53.65041,R,ugm-3
05-01-2015,04:00,9.65909,R,ugm-3,44.96622,R,ugm-3,59.77662,R,ugm-3
05-01-2015,05:00,6.37651,R,ugm-3,40.66118,R,ugm-3,50.43836,R,ugm-3
05-01-2015,06:00,18.45037,R,ugm-3,39.51560,R,ugm-3,67.80578,R,ugm-3
05-01-2015,07:00,79.95162,R,ugm-3,53.46633,R,ugm-3,176.05710,R,ugm-3
05-01-2015,08:00,108.40066,R,ugm-3,57.78475,R,ugm-3,223.99678,R,ugm-3
05-01-2015,09:00,166.16655,R,ugm-3,72.05009,R,ugm-3,326.83525,R,ugm-3
05-01-2015,10:00,163.14809,R,ugm-3,66.38861,R,ugm-3,316.54553,R,ugm-3
05-01-2015,11:00,185.03197,R,ugm-3,64.35849,R,ugm-3,348.07022,R,ugm-3
05-01-2015,12:00,192.91771,R,ugm-3,65.58967,R,ugm-3,361.39269,R,ugm-3
05-01-2015,13:00,129.71858,R,ugm-3,58.94134,R,ugm-3,257.84038,R,ugm-3
05-01-2015,14:00,140.58505,R,ugm-3,56.01952,R,ugm-3,271.58026,R,ugm-3
05-01-2015,15:00,151.07422,R,ugm-3,65.45244,R,ugm-3,297.09636,R,ugm-3
05-01-2015,16:00,133.56712,R,ugm-3,68.20740,R,ugm-3,273.00746,R,ugm-3
05-01-2015,17:00,132.96343,R,ugm-3,69.54950,R,ugm-3,273.42391,R,ugm-3
05-01-2015,18:00,130.24681,R,ugm-3,66.81606,R,ugm-3,266.52504,R,ugm-3
05-01-2015,19:00,88.47879,R,ugm-3,46.45845,R,ugm-3,182.12403,R,ugm-3
05-01-2015,20:00,35.50471,R,ugm-3,46.43646,R,ugm-3,100.87625,R,ugm-3
05-01-2015,21:00,21.39338,R,ugm-3,41.36738,R,ugm-3,74.17010,R,ugm-3
05-01-2015,22:00,11.99840,R,ugm-3,30.61291,R,ugm-3,49.01020,R,ugm-3
05-01-2015,23:00,8.03667,R,ugm-3,20.50965,R,ugm-3,32.83237,R,ugm-3
05-01-2015,24:00,,,,,,,,,
06-01-2015,01:00,5.52803,R,ugm-3,23.33537,R,ugm-3,31.81157,R,ugm-3
06-01-2015,02:00,2.74531,R,ugm-3,18.18357,R,ugm-3,22.39298,R,ugm-3
06-01-2015,03:00,7.55895,R,ugm-3,21.82067,R,ugm-3,33.41090,R,ugm-3
06-01-2015,04:00,2.51955,R,ugm-3,14.67844,R,ugm-3,18.54169,R,ugm-3
06-01-2015,05:00,2.66985,R,ugm-3,13.50034,R,ugm-3,17.59404,R,ugm-3
06-01-2015,06:00,3.68546,R,ugm-3,17.03798,R,ugm-3,22.68894,R,ugm-3
06-01-2015,07:00,28.88154,R,ugm-3,30.23902,R,ugm-3,74.52343,R,ugm-3
06-01-2015,08:00,72.50461,R,ugm-3,44.86534,R,ugm-3,156.03753,R,ugm-3
06-01-2015,09:00,73.52023,R,ugm-3,52.01618,R,ugm-3,164.74562,R,ugm-3
06-01-2015,10:00,66.22446,R,ugm-3,47.38553,R,ugm-3,148.92829,R,ugm-3
06-01-2015,11:00,71.26355,R,ugm-3,44.51678,R,ugm-3,153.78604,R,ugm-3
06-01-2015,12:00,99.58100,R,ugm-3,48.07451,R,ugm-3,200.76325,R,ugm-3
06-01-2015,13:00,178.85440,R,ugm-3,55.13355,R,ugm-3,329.37314,R,ugm-3
06-01-2015,14:00,60.35778,R,ugm-3,45.42188,R,ugm-3,137.96918,R,ugm-3
06-01-2015,15:00,68.93235,R,ugm-3,52.35660,R,ugm-3,158.05139,R,ugm-3
06-01-2015,16:00,64.34415,R,ugm-3,52.34226,R,ugm-3,151.00192,R,ugm-3
06-01-2015,17:00,68.25506,R,ugm-3,57.12733,R,ugm-3,161.78363,R,ugm-3
06-01-2015,18:00,90.25463,R,ugm-3,63.44097,R,ugm-3,201.82947,R,ugm-3
06-01-2015,19:00,121.58057,R,ugm-3,66.59229,R,ugm-3,253.01323,R,ugm-3
06-01-2015,20:00,46.18035,R,ugm-3,52.05395,R,ugm-3,122.86283,R,ugm-3
06-01-2015,21:00,30.72412,R,ugm-3,49.03602,R,ugm-3,96.14568,R,ugm-3
06-01-2015,22:00,22.52593,R,ugm-3,45.96742,R,ugm-3,80.50669,R,ugm-3
06-01-2015,23:00,16.17093,R,ugm-3,36.28108,R,ugm-3,61.07617,R,ugm-3
06-01-2015,24:00,,,,,,,,,
07-01-2015,01:00,7.19630,R,ugm-3,27.10873,R,ugm-3,38.14290,R,ugm-3
07-01-2015,02:00,2.99851,R,ugm-3,26.23472,R,ugm-3,30.83237,R,ugm-3
07-01-2015,03:00,5.02257,R,ugm-3,25.43051,R,ugm-3,33.13167,R,ugm-3
07-01-2015,04:00,6.33410,R,ugm-3,24.89358,R,ugm-3,34.60573,R,ugm-3
07-01-2015,05:00,5.28512,R,ugm-3,26.73723,R,ugm-3,34.84097,R,ugm-3
07-01-2015,06:00,24.43773,R,ugm-3,37.22251,R,ugm-3,74.69317,R,ugm-3
07-01-2015,07:00,58.13354,R,ugm-3,47.51558,R,ugm-3,136.65243,R,ugm-3
07-01-2015,08:00,71.06461,R,ugm-3,50.32648,R,ugm-3,159.29069,R,ugm-3
07-01-2015,09:00,92.01675,R,ugm-3,60.52823,R,ugm-3,201.61862,R,ugm-3
07-01-2015,10:00,73.50058,R,ugm-3,57.96883,R,ugm-3,170.66815,R,ugm-3
07-01-2015,11:00,74.40051,R,ugm-3,62.24853,R,ugm-3,176.32772,R,ugm-3
07-01-2015,12:00,63.15610,R,ugm-3,57.44146,R,ugm-3,154.27946,R,ugm-3
07-01-2015,13:00,50.97497,R,ugm-3,49.53136,R,ugm-3,127.69189,R,ugm-3
07-01-2015,14:00,54.68537,R,ugm-3,44.43168,R,ugm-3,128.28142,R,ugm-3
07-01-2015,15:00,63.34351,R,ugm-3,49.78572,R,ugm-3,146.91108,R,ugm-3
07-01-2015,16:00,44.90280,R,ugm-3,43.04273,R,ugm-3,111.89273,R,ugm-3
07-01-2015,17:00,38.45582,R,ugm-3,39.01500,R,ugm-3,97.97977,R,ugm-3
07-01-2015,18:00,46.43947,R,ugm-3,38.44603,R,ugm-3,109.65223,R,ugm-3
07-01-2015,19:00,31.59692,R,ugm-3,33.79101,R,ugm-3,82.23893,R,ugm-3
07-01-2015,20:00,16.97918,R,ugm-3,25.60790,R,ugm-3,51.64228,R,ugm-3
07-01-2015,21:00,8.39589,R,ugm-3,18.60719,R,ugm-3,31.48071,R,ugm-3
07-01-2015,22:00,5.84703,R,ugm-3,15.79486,R,ugm-3,24.76018,R,ugm-3
07-01-2015,23:00,6.33441,R,ugm-3,11.33348,R,ugm-3,21.04611,R,ugm-3
07-01-2015,24:00,,,,,,,,,
08-01-2015,01:00,2.38889,R,ugm-3,9.90053,R,ugm-3,13.56345,R,ugm-3
08-01-2015,02:00,2.05306,R,ugm-3,8.30121,R,ugm-3,11.44918,R,ugm-3
08-01-2015,03:00,1.67980,R,ugm-3,7.34687,R,ugm-3,9.92253,R,ugm-3
08-01-2015,04:00,1.00782,R,ugm-3,6.32225,R,ugm-3,7.86755,R,ugm-3
08-01-2015,05:00,1.11976,R,ugm-3,6.73726,R,ugm-3,8.45421,R,ugm-3
08-01-2015,06:00,6.42017,R,ugm-3,21.74417,R,ugm-3,31.58828,R,ugm-3
08-01-2015,07:00,39.37820,R,ugm-3,50.47279,R,ugm-3,110.85185,R,ugm-3
08-01-2015,08:00,132.16921,R,ugm-3,68.19019,R,ugm-3,270.84682,R,ugm-3
08-01-2015,09:00,191.44246,R,ugm-3,70.07304,R,ugm-3,363.61406,R,ugm-3
08-01-2015,10:00,153.25856,R,ugm-3,79.47776,R,ugm-3,314.47094,R,ugm-3
08-01-2015,11:00,189.68814,R,ugm-3,84.85810,R,ugm-3,375.70919,R,ugm-3
08-01-2015,12:00,194.54045,R,ugm-3,91.92049,R,ugm-3,390.21168,R,ugm-3
08-01-2015,13:00,138.92521,R,ugm-3,72.15719,R,ugm-3,285.17288,R,ugm-3
08-01-2015,14:00,72.22491,R,ugm-3,56.41445,R,ugm-3,167.15776,R,ugm-3
08-01-2015,15:00,78.27119,R,ugm-3,56.94899,R,ugm-3,176.96315,R,ugm-3
08-01-2015,16:00,80.99623,R,ugm-3,58.70084,R,ugm-3,182.89333,R,ugm-3
08-01-2015,17:00,100.51741,R,ugm-3,64.52584,R,ugm-3,218.65039,R,ugm-3
08-01-2015,18:00,88.05096,R,ugm-3,58.04103,R,ugm-3,193.05062,R,ugm-3
08-01-2015,19:00,55.83850,R,ugm-3,48.54308,R,ugm-3,134.16092,R,ugm-3
08-01-2015,20:00,26.53849,R,ugm-3,37.51464,R,ugm-3,78.20643,R,ugm-3
08-01-2015,21:00,22.09686,R,ugm-3,34.40301,R,ugm-3,68.28438,R,ugm-3
08-01-2015,22:00,10.33918,R,ugm-3,27.41903,R,ugm-3,43.27223,R,ugm-3
08-01-2015,23:00,7.72640,R,ugm-3,21.67867,R,ugm-3,33.52565,R,ugm-3
08-01-2015,24:00,,,,,,,,,
09-01-2015,01:00,2.64147,R,ugm-3,10.14725,R,ugm-3,14.19744,R,ugm-3
09-01-2015,02:00,1.71130,R,ugm-3,7.01601,R,ugm-3,9.63996,R,ugm-3
09-01-2015,03:00,1.67419,R,ugm-3,7.07338,R,ugm-3,9.64043,R,ugm-3
09-01-2015,04:00,2.56663,R,ugm-3,6.28878,R,ugm-3,10.22423,R,ugm-3
09-01-2015,05:00,1.37640,R,ugm-3,7.17953,R,ugm-3,9.28997,R,ugm-3
09-01-2015,06:00,3.27385,R,ugm-3,9.11976,R,ugm-3,14.13959,R,ugm-3
09-01-2015,07:00,13.61553,R,ugm-3,22.06738,R,ugm-3,42.94423,R,ugm-3
09-01-2015,08:00,30.50459,R,ugm-3,35.25837,R,ugm-3,82.03143,R,ugm-3
09-01-2015,09:00,31.69514,R,ugm-3,35.53664,R,ugm-3,84.13518,R,ugm-3
09-01-2015,10:00,36.15923,R,ugm-3,39.67577,R,ugm-3,95.11914,R,ugm-3
09-01-2015,11:00,44.78961,R,ugm-3,41.57536,R,ugm-3,110.25180,R,ugm-3
09-01-2015,12:00,35.52685,R,ugm-3,37.66525,R,ugm-3,92.13899,R,ugm-3
09-01-2015,13:00,45.79431,R,ugm-3,42.19644,R,ugm-3,112.41340,R,ugm-3
09-01-2015,14:00,45.23645,R,ugm-3,44.22035,R,ugm-3,113.58194,R,ugm-3
09-01-2015,15:00,39.28403,R,ugm-3,39.50030,R,ugm-3,99.73496,R,ugm-3
09-01-2015,16:00,37.68436,R,ugm-3,33.83165,R,ugm-3,91.61353,R,ugm-3
09-01-2015,17:00,41.70223,R,ugm-3,31.52708,R,ugm-3,95.46961,R,ugm-3
09-01-2015,18:00,30.69044,R,ugm-3,26.85150,R,ugm-3,73.90952,R,ugm-3
09-01-2015,19:00,27.93796,R,ugm-3,23.82736,R,ugm-3,66.66497,R,ugm-3
09-01-2015,20:00,12.20171,R,ugm-3,18.91797,R,ugm-3,37.62700,R,ugm-3
09-01-2015,21:00,8.96528,R,ugm-3,15.34973,R,ugm-3,29.09630,R,ugm-3
09-01-2015,22:00,5.65464,R,ugm-3,12.30503,R,ugm-3,20.97534,R,ugm-3
09-01-2015,23:00,7.62630,R,ugm-3,13.43005,R,ugm-3,25.12356,R,ugm-3
09-01-2015,24:00,,,,,,,,,
10-01-2015,01:00,3.63370,R,ugm-3,10.93998,R,ugm-3,16.51157,R,ugm-3
10-01-2015,02:00,3.44816,R,ugm-3,8.14295,R,ugm-3,13.43005,R,ugm-3
10-01-2015,03:00,3.26294,R,ugm-3,6.33420,R,ugm-3,11.33730,R,ugm-3
10-01-2015,04:00,3.15162,R,ugm-3,6.33038,R,ugm-3,11.16278,R,ugm-3
10-01-2015,05:00,1.18649,R,ugm-3,3.35500,R,ugm-3,5.17427,R,ugm-3
10-01-2015,06:00,2.63212,R,ugm-3,5.84795,R,ugm-3,9.88380,R,ugm-3
10-01-2015,07:00,9.60265,R,ugm-3,10.50871,R,ugm-3,25.23257,R,ugm-3
10-01-2015,08:00,11.30833,R,ugm-3,12.66123,R,ugm-3,30.00043,R,ugm-3
10-01-2015,09:00,16.75841,R,ugm-3,17.15321,R,ugm-3,42.84908,R,ugm-3
10-01-2015,10:00,19.24241,R,ugm-3,18.51922,R,ugm-3,48.02383,R,ugm-3
10-01-2015,11:00,32.21901,R,ugm-3,30.54071,R,ugm-3,79.94250,R,ugm-3
10-01-2015,12:00,45.78870,R,ugm-3,38.68796,R,ugm-3,108.89632,R,ugm-3
10-01-2015,13:00,57.13382,R,ugm-3,44.54834,R,ugm-3,132.15232,R,ugm-3
10-01-2015,14:00,51.57274,R,ugm-3,42.95858,R,ugm-3,122.03567,R,ugm-3
10-01-2015,15:00,40.85812,R,ugm-3,35.89906,R,ugm-3,98.54730,R,ugm-3
10-01-2015,16:00,57.13445,R,ugm-3,39.83833,R,ugm-3,127.44326,R,ugm-3
10-01-2015,17:00,60.99016,R,ugm-3,50.38003,R,ugm-3,143.89698,R,ugm-3
10-01-2015,18:00,74.85640,R,ugm-3,56.38576,R,ugm-3,171.16397,R,ugm-3
10-01-2015,19:00,86.64650,R,ugm-3,53.42473,R,ugm-3,186.28085,R,ugm-3
10-01-2015,20:00,22.87579,R,ugm-3,34.69275,R,ugm-3,69.76848,R,ugm-3
10-01-2015,21:00,14.90430,R,ugm-3,27.26317,R,ugm-3,50.11611,R,ugm-3
10-01-2015,22:00,13.60680,R,ugm-3,24.07838,R,ugm-3,44.94184,R,ugm-3
10-01-2015,23:00,20.57764,R,ugm-3,31.00641,R,ugm-3,62.55835,R,ugm-3
10-01-2015,24:00,,,,,,,,,
11-01-2015,01:00,10.01332,R,ugm-3,21.12404,R,ugm-3,36.47759,R,ugm-3
11-01-2015,02:00,7.35346,R,ugm-3,15.99615,R,ugm-3,27.27129,R,ugm-3
11-01-2015,03:00,9.38531,R,ugm-3,17.51228,R,ugm-3,31.90289,R,ugm-3
11-01-2015,04:00,12.71123,R,ugm-3,19.30334,R,ugm-3,38.79363,R,ugm-3
11-01-2015,05:00,6.28140,R,ugm-3,10.28638,R,ugm-3,19.91773,R,ugm-3
11-01-2015,06:00,4.65555,R,ugm-3,11.27419,R,ugm-3,18.41259,R,ugm-3
11-01-2015,07:00,4.50805,R,ugm-3,12.65788,R,ugm-3,19.57013,R,ugm-3
11-01-2015,08:00,5.09927,R,ugm-3,16.61532,R,ugm-3,24.43410,R,ugm-3
11-01-2015,09:00,2.62370,R,ugm-3,12.94189,R,ugm-3,16.96483,R,ugm-3
11-01-2015,10:00,12.85904,R,ugm-3,21.56631,R,ugm-3,41.28323,R,ugm-3
11-01-2015,11:00,14.22639,R,ugm-3,22.07551,R,ugm-3,43.88901,R,ugm-3
11-01-2015,12:00,17.40451,R,ugm-3,25.01933,R,ugm-3,51.70587,R,ugm-3
11-01-2015,13:00,15.03901,R,ugm-3,21.87135,R,ugm-3,44.93084,R,ugm-3
11-01-2015,14:00,24.72055,R,ugm-3,28.85532,R,ugm-3,66.75964,R,ugm-3
11-01-2015,15:00,28.74808,R,ugm-3,35.82352,R,ugm-3,79.90329,R,ugm-3
11-01-2015,16:00,44.48901,R,ugm-3,31.89524,R,ugm-3,100.11077,R,ugm-3
11-01-2015,17:00,48.11054,R,ugm-3,45.68150,R,ugm-3,119.44997,R,ugm-3
11-01-2015,18:00,34.69739,R,ugm-3,36.94998,R,ugm-3,90.15190,R,ugm-3
11-01-2015,19:00,8.94221,R,ugm-3,20.04491,R,ugm-3,33.75610,R,ugm-3
11-01-2015,20:00,7.27956,R,ugm-3,18.42598,R,ugm-3,29.58781,R,ugm-3
11-01-2015,21:00,6.61443,R,ugm-3,16.08699,R,ugm-3,26.22898,R,ugm-3
11-01-2015,22:00,5.13607,R,ugm-3,11.75375,R,ugm-3,19.62894,R,ugm-3
11-01-2015,23:00,4.87757,R,ugm-3,10.00763,R,ugm-3,17.48647,R,ugm-3
11-01-2015,24:00,,,,,,,,,
12-01-2015,01:00,1.58376,R,ugm-3,6.50107,R,ugm-3,8.92946,R,ugm-3
12-01-2015,02:00,0.92051,R,ugm-3,4.29213,R,ugm-3,5.70355,R,ugm-3
12-01-2015,03:00,0.88371,R,ugm-3,3.71503,R,ugm-3,5.07004,R,ugm-3
12-01-2015,04:00,0.92051,R,ugm-3,3.42863,R,ugm-3,4.84006,R,ugm-3
12-01-2015,05:00,0.62583,R,ugm-3,3.87998,R,ugm-3,4.83958,R,ugm-3
12-01-2015,06:00,2.54106,R,ugm-3,7.39707,R,ugm-3,11.29331,R,ugm-3
12-01-2015,07:00,17.67642,R,ugm-3,20.65883,R,ugm-3,47.76230,R,ugm-3
12-01-2015,08:00,18.30257,R,ugm-3,21.13838,R,ugm-3,49.20193,R,ugm-3
12-01-2015,09:00,17.97172,R,ugm-3,25.21823,R,ugm-3,52.77448,R,ugm-3
12-01-2015,10:00,30.34494,R,ugm-3,30.67459,R,ugm-3,77.20284,R,ugm-3
12-01-2015,11:00,37.12152,R,ugm-3,37.22251,R,ugm-3,94.14138,R,ugm-3
12-01-2015,12:00,36.09000,R,ugm-3,36.61481,R,ugm-3,91.95204,R,ugm-3
12-01-2015,13:00,43.41851,R,ugm-3,34.65354,R,ugm-3,101.22767,R,ugm-3
12-01-2015,14:00,47.98519,R,ugm-3,36.35184,R,ugm-3,109.92811,R,ugm-3
12-01-2015,15:00,41.83507,R,ugm-3,37.94591,R,ugm-3,102.09212,R,ugm-3
12-01-2015,16:00,41.72437,R,ugm-3,37.30953,R,ugm-3,101.28600,R,ugm-3
12-01-2015,17:00,62.27364,R,ugm-3,41.34825,R,ugm-3,136.83316,R,ugm-3
12-01-2015,18:00,51.88862,R,ugm-3,41.88901,R,ugm-3,121.45044,R,ugm-3
12-01-2015,19:00,28.31964,R,ugm-3,32.10944,R,ugm-3,75.53228,R,ugm-3
12-01-2015,20:00,24.12122,R,ugm-3,34.51393,R,ugm-3,71.49929,R,ugm-3
12-01-2015,21:00,12.85249,R,ugm-3,25.86561,R,ugm-3,45.57248,R,ugm-3
12-01-2015,22:00,8.24933,R,ugm-3,18.92419,R,ugm-3,31.57298,R,ugm-3
12-01-2015,23:00,4.93463,R,ugm-3,13.63613,R,ugm-3,21.20245,R,ugm-3
12-01-2015,24:00,,,,,,,,,
13-01-2015,01:00,2.82389,R,ugm-3,10.30073,R,ugm-3,14.63063,R,ugm-3
13-01-2015,02:00,2.09048,R,ugm-3,7.12215,R,ugm-3,10.32750,R,ugm-3
13-01-2015,03:00,1.43003,R,ugm-3,7.44632,R,ugm-3,9.63900,R,ugm-3
13-01-2015,04:00,2.27352,R,ugm-3,9.53812,R,ugm-3,13.02413,R,ugm-3
13-01-2015,05:00,2.27352,R,ugm-3,8.44799,R,ugm-3,11.93400,R,ugm-3
13-01-2015,06:00,5.64746,R,ugm-3,18.42168,R,ugm-3,27.08100,R,ugm-3
13-01-2015,07:00,18.40859,R,ugm-3,28.34564,R,ugm-3,56.57175,R,ugm-3
13-01-2015,08:00,131.31730,R,ugm-3,79.90186,R,ugm-3,281.25225,R,ugm-3
13-01-2015,09:00,152.36643,R,ugm-3,86.75674,R,ugm-3,320.38200,R,ugm-3
13-01-2015,10:00,108.72808,R,ugm-3,69.55619,R,ugm-3,236.27025,R,ugm-3
13-01-2015,11:00,80.16210,R,ugm-3,56.03912,R,ugm-3,178.95263,R,ugm-3
13-01-2015,12:00,72.20433,R,ugm-3,51.88899,R,ugm-3,162.60075,R,ugm-3
13-01-2015,13:00,83.64581,R,ugm-3,57.63988,R,ugm-3,185.89500,R,ugm-3
13-01-2015,14:00,49.28519,R,ugm-3,46.58181,R,ugm-3,122.15138,R,ugm-3
13-01-2015,15:00,60.76316,R,ugm-3,51.07188,R,ugm-3,144.24075,R,ugm-3
13-01-2015,16:00,46.49841,R,ugm-3,44.19931,R,ugm-3,115.49588,R,ugm-3
13-01-2015,17:00,73.41452,R,ugm-3,58.98389,R,ugm-3,171.55125,R,ugm-3
13-01-2015,18:00,96.59060,R,ugm-3,61.14310,R,ugm-3,209.24663,R,ugm-3
13-01-2015,19:00,52.36540,R,ugm-3,49.89139,R,ugm-3,130.18388,R,ugm-3
13-01-2015,20:00,20.09556,R,ugm-3,33.56198,R,ugm-3,64.37475,R,ugm-3
13-01-2015,21:00,15.25479,R,ugm-3,24.57515,R,ugm-3,47.96550,R,ugm-3
13-01-2015,22:00,10.67096,R,ugm-3,22.25146,R,ugm-3,38.61338,R,ugm-3
13-01-2015,23:00,7.88418,R,ugm-3,19.98371,R,ugm-3,32.07263,R,ugm-3
13-01-2015,24:00,,,,,,,,,
14-01-2015,01:00,2.52173,R,ugm-3,12.06023,R,ugm-3,15.92682,R,ugm-3
14-01-2015,02:00,1.97323,R,ugm-3,7.25029,R,ugm-3,10.27586,R,ugm-3
14-01-2015,03:00,1.75402,R,ugm-3,6.27300,R,ugm-3,8.96245,R,ugm-3
14-01-2015,04:00,1.57160,R,ugm-3,7.00979,R,ugm-3,9.41954,R,ugm-3
14-01-2015,05:00,1.90026,R,ugm-3,8.21849,R,ugm-3,11.13218,R,ugm-3
14-01-2015,06:00,5.70110,R,ugm-3,13.80777,R,ugm-3,22.54933,R,ugm-3
14-01-2015,07:00,48.38682,R,ugm-3,39.75562,R,ugm-3,113.94771,R,ugm-3
14-01-2015,08:00,49.99490,R,ugm-3,44.19788,R,ugm-3,120.85566,R,ugm-3
14-01-2015,09:00,56.02466,R,ugm-3,48.36808,R,ugm-3,134.27137,R,ugm-3
14-01-2015,10:00,52.55312,R,ugm-3,44.55695,R,ugm-3,125.13727,R,ugm-3
14-01-2015,11:00,42.21050,R,ugm-3,39.40706,R,ugm-3,104.12893,R,ugm-3
14-01-2015,12:00,36.72862,R,ugm-3,32.39871,R,ugm-3,88.71514,R,ugm-3
14-01-2015,13:00,42.97822,R,ugm-3,38.80080,R,ugm-3,104.69981,R,ugm-3
14-01-2015,14:00,69.07173,R,ugm-3,48.57224,R,ugm-3,154.48075,R,ugm-3
14-01-2015,15:00,,,,,,,,,
14-01-2015,16:00,61.61631,R,ugm-3,46.64492,R,ugm-3,141.12194,R,ugm-3
14-01-2015,17:00,47.25396,R,ugm-3,45.08958,R,ugm-3,117.54464,R,ugm-3
14-01-2015,18:00,53.24724,R,ugm-3,47.08910,R,ugm-3,128.73372,R,ugm-3
14-01-2015,19:00,49.95842,R,ugm-3,48.93466,R,ugm-3,125.53650,R,ugm-3
14-01-2015,20:00,26.20328,R,ugm-3,37.46205,R,ugm-3,77.63985,R,ugm-3
14-01-2015,21:00,13.52229,R,ugm-3,24.82282,R,ugm-3,45.55671,R,ugm-3
14-01-2015,22:00,7.93033,R,ugm-3,14.32941,R,ugm-3,26.48908,R,ugm-3
14-01-2015,23:00,5.18939,R,ugm-3,10.71096,R,ugm-3,18.66791,R,ugm-3
14-01-2015,24:00,,,,,,,,,
15-01-2015,01:00,3.40170,R,ugm-3,8.16542,R,ugm-3,13.38128,R,ugm-3
15-01-2015,02:00,2.63367,R,ugm-3,5.05378,R,ugm-3,9.09203,R,ugm-3
15-01-2015,03:00,1.79237,R,ugm-3,3.88524,R,ugm-3,6.63351,R,ugm-3
15-01-2015,04:00,1.28035,R,ugm-3,3.58355,R,ugm-3,5.54673,R,ugm-3
15-01-2015,05:00,2.04807,R,ugm-3,6.58091,R,ugm-3,9.72124,R,ugm-3
15-01-2015,06:00,8.22969,R,ugm-3,18.83287,R,ugm-3,31.45154,R,ugm-3
15-01-2015,07:00,17.81300,R,ugm-3,21.40757,R,ugm-3,48.72046,R,ugm-3
15-01-2015,08:00,39.06419,R,ugm-3,36.39966,R,ugm-3,96.29724,R,ugm-3
15-01-2015,09:00,37.89391,R,ugm-3,43.05516,R,ugm-3,101.15834,R,ugm-3
15-01-2015,10:00,56.58470,R,ugm-3,54.99633,R,ugm-3,141.75833,R,ugm-3
15-01-2015,11:00,55.30435,R,ugm-3,51.47016,R,ugm-3,136.26897,R,ugm-3
15-01-2015,12:00,42.35644,R,ugm-3,39.87228,R,ugm-3,104.81791,R,ugm-3
15-01-2015,13:00,46.01414,R,ugm-3,41.29757,R,ugm-3,111.85161,R,ugm-3
15-01-2015,14:00,50.54964,R,ugm-3,39.77570,R,ugm-3,117.28406,R,ugm-3
15-01-2015,15:00,36.79629,R,ugm-3,30.78503,R,ugm-3,87.20522,R,ugm-3
15-01-2015,16:00,31.52925,R,ugm-3,32.28491,R,ugm-3,80.62909,R,ugm-3
15-01-2015,17:00,26.84751,R,ugm-3,30.71427,R,ugm-3,71.87988,R,ugm-3
15-01-2015,18:00,36.86988,R,ugm-3,33.87468,R,ugm-3,90.40770,R,ugm-3
15-01-2015,19:00,25.05514,R,ugm-3,26.25767,R,ugm-3,64.67501,R,ugm-3
15-01-2015,20:00,12.50948,R,ugm-3,15.58688,R,ugm-3,34.76782,R,ugm-3
15-01-2015,21:00,8.66874,R,ugm-3,13.81351,R,ugm-3,27.10538,R,ugm-3
15-01-2015,22:00,4.27917,R,ugm-3,9.22112,R,ugm-3,15.78243,R,ugm-3
15-01-2015,23:00,4.05996,R,ugm-3,7.44154,R,ugm-3,13.66673,R,ugm-3